Theta_e
289 288 287 287 286 286 286 286 286 287 287 287 286 286 286 287 287 286 287 287 288 290 292 293 293 293 294 295 296 297 299 300 306 312 319 323 322 327
286 286 285 285 285 285 285 284 284 284 285 285 284 283 283 284 286 286 286 286 287 287 289 290 292 292 292 293 295 296 297 299 300 306 314 319 323 325
285 284 284 284 284 283 283 282 282 283 283 283 283 282 283 283 283 284 285 285 285 286 287 288 289 291 291 292 293 294 295 297 299 301 307 314 319 322
284 283 283 282 282 282 281 281 281 281 281 281 281 282 282 282 281 281 282 285 285 285 286 287 287 289 290 291 291 291 293 295 297 299 303 309 315 320
282 282 282 281 281 281 281 281 281 280 280 280 281 281 281 281 281 281 281 281 284 284 285 286 286 288 288 289 289 290 290 293 295 297 300 305 312 316
281 281 281 280 280 279 280 280 279 279 279 279 280 280 280 280 280 280 280 280 281 283 283 283 284 285 287 288 288 289 290 291 293 295 298 301 307 312
280 280 280 279 279 278 278 278 278 278 278 279 279 279 279 279 279 278 279 279 280 281 282 281 282 284 285 286 288 288 288 289 291 292 296 299 303 308
279 279 278 278 278 278 278 277 277 277 277 277 277 277 277 277 277 277 278 278 278 280 279 282 280 283 282 283 285 286 287 287 288 291 292 296 300 304
279 279 278 278 278 277 277 277 277 277 276 275 276 276 276 276 276 276 277 277 277 278 278 279 280 280 280 281 285 286 287 287 288 289 292 293 296 300
278 278 278 277 277 276 277 276 277 276 276 276 275 275 275 275 275 274 274 275 276 277 277 277 278 279 280 283 285 285 285 285 286 289 290 292 295 298
278 277 277 277 276 276 276 276 275 275 276 276 276 275 275 275 275 274 274 274 275 276 278 277 278 277 279 281 282 284 284 283 285 286 288 290 293 296
277 277 277 276 276 275 275 274 274 274 274 275 275 276 275 275 275 274 272 272 273 273 276 275 274 274 276 278 279 280 282 283 284 286 287 289 291 294
278 277 277 276 276 275 274 274 273 273 274 274 274 274 274 274 274 274 273 271 271 272 275 272 273 274 274 275 277 278 279 281 281 284 286 288 291 293
278 277 277 276 275 275 274 274 274 274 273 273 272 272 272 273 273 273 273 273 273 271 272 272 273 274 274 274 275 278 278 281 281 284 285 286 290 293
277 277 276 275 275 275 275 274 274 273 272 271 271 271 271 272 272 271 273 273 274 275 273 272 272 273 273 274 275 275 277 281 281 284 284 285 287 291
277 276 275 275 276 275 275 274 273 272 272 271 270 270 270 271 271 270 269 270 271 275 275 274 273 272 272 274 274 276 277 278 280 281 283 284 286 287
276 275 275 275 275 275 274 273 272 272 272 271 271 270 270 270 270 270 269 267 268 269 274 277 277 272 272 273 274 276 277 279 280 282 282 284 285 287
275 275 275 274 274 274 272 272 272 272 271 271 270 269 269 268 268 269 267 266 267 268 269 273 276 274 273 275 275 277 277 277 278 280 281 283 284 287
275 274 274 274 273 272 271 271 271 270 270 269 269 268 267 267 266 266 265 265 267 268 270 269 269 271 271 272 276 276 273 276 276 278 280 282 283 287
274 274 273 272 271 271 271 270 270 269 269 269 269 268 267 266 265 265 266 266 265 268 269 270 269 270 268 268 269 277 278 276 277 279 281 283 284 287
274 273 272 271 271 270 270 270 269 269 268 268 268 267 267 265 266 266 265 267 266 265 267 270 272 272 270 269 271 274 277 277 278 280 281 282 285 288
273 272 272 271 270 270 269 269 268 268 268 268 268 267 266 266 265 265 265 265 266 265 267 270 272 271 271 269 271 273 276 279 281 283 285 285 286 289
272 272 271 270 269 269 268 268 268 268 267 267 267 266 266 265 265 265 265 265 265 267 266 268 272 272 270 270 271 273 276 278 282 285 290 292 290 291
Wind_Speed
4 5 6 8 10 12 12 10 10 12 19 16 21 30 32 29 29 33 36 36 37 32 32 34 34 35 36 36 38 40 43 45 46 48 49 43 48 46
5 6 7 8 9 10 10 11 11 11 14 20 24 27 30 32 28 30 34 36 37 38 34 33 34 34 36 37 38 39 41 44 45 48 53 51 46 49
5 6 7 7 8 8 11 11 12 12 17 21 22 24 27 26 26 28 28 33 34 36 39 38 34 35 36 37 37 38 39 43 44 45 50 54 51 50
3 5 6 8 8 11 11 11 12 13 17 23 23 24 24 25 25 25 25 25 34 36 40 40 37 35 34 33 35 34 37 41 44 45 48 53 53 53
5 7 8 9 10 12 11 12 14 16 17 20 24 23 24 24 27 25 27 29 32 36 37 39 37 33 31 29 33 36 33 38 40 43 48 53 54 54
8 9 10 10 12 12 12 13 15 17 17 19 22 23 25 27 27 32 34 30 35 38 36 32 30 40 41 34 33 33 34 34 39 42 46 52 55 56
9 10 9 10 13 14 12 15 18 17 18 20 22 24 28 31 31 32 34 37 34 32 36 33 41 42 39 37 33 31 30 31 35 39 42 50 54 56
9 10 9 12 14 15 16 16 18 19 18 18 21 25 28 29 30 32 35 38 43 34 42 53 40 44 38 32 33 35 34 32 29 30 39 46 54 55
9 11 11 13 15 16 17 18 18 20 21 20 23 24 28 29 31 33 33 34 38 40 39 52 44 38 35 36 41 39 33 28 29 29 29 43 49 52
10 12 14 15 16 18 20 21 20 19 19 23 25 27 28 30 28 29 32 33 34 33 32 45 33 37 45 50 37 20 19 18 20 23 25 26 41 47
12 14 15 17 18 21 23 23 21 21 23 22 23 25 27 27 29 30 26 29 35 34 35 24 32 49 52 41 26 11 31 43 30 35 39 35 27 41
13 16 17 18 20 22 23 22 22 26 29 29 26 24 24 27 26 27 24 27 30 34 19 32 39 37 33 23 23 46 45 42 37 28 27 32 32 31
15 17 18 21 22 22 23 21 23 28 29 28 27 28 28 28 29 28 27 24 28 30 37 33 37 34 28 46 39 44 43 44 42 40 33 28 31 31
15 17 19 21 22 22 23 24 26 27 28 28 28 29 31 33 32 29 30 30 29 32 34 29 33 32 36 44 48 39 45 45 43 43 34 29 28 33
16 18 20 21 21 22 23 25 27 28 29 29 30 30 32 34 35 34 33 33 33 34 29 25 27 31 32 39 47 46 47 45 34 20 29 28 25 26
16 18 19 20 22 23 25 26 27 28 30 32 32 32 33 35 35 35 35 35 37 38 35 30 32 29 33 35 39 45 41 37 37 35 34 35 32 30
18 19 21 22 24 24 25 27 28 30 31 33 34 34 35 35 36 36 34 33 34 37 44 42 39 34 31 32 38 40 39 39 38 38 36 39 37 30
19 21 23 25 26 26 28 28 27 29 31 33 33 33 35 35 36 36 33 32 34 39 42 46 47 50 44 40 27 30 39 42 39 38 33 37 41 33
19 21 23 25 25 26 28 28 29 30 32 33 34 33 34 34 35 35 34 35 40 43 44 42 38 36 42 44 52 38 37 45 41 37 34 34 37 37
19 21 23 25 26 27 28 28 28 30 31 33 34 34 34 33 35 35 37 41 42 47 50 46 38 37 41 47 55 57 41 36 41 42 41 39 33 34
19 21 23 25 26 27 28 28 28 30 32 34 33 34 34 34 37 39 40 43 45 38 49 53 51 52 50 45 42 48 51 36 36 40 45 38 34 31
19 21 23 25 26 28 28 28 29 30 31 33 34 34 35 36 36 39 39 41 45 43 49 53 55 54 51 41 46 51 55 51 46 40 32 35 26 17
20 22 24 26 27 28 28 28 30 31 32 33 34 35 36 37 38 38 39 39 44 48 48 53 55 53 50 44 45 50 50 49 49 41 22 20 29 25
Wind_Direction
0 348 352 354 352 351 346 348 334 325 319 327 326 327 331 330 324 317 317 316 313 303 299 299 298 295 290 284 279 274 268 261 253 245 246 245 238 234
9 358 355 355 351 345 341 332 326 313 302 315 320 323 330 329 325 318 316 312 311 311 305 297 295 297 294 287 282 277 271 265 256 249 243 243 240 237
6 2 360 356 351 352 340 336 335 325 312 313 315 320 325 322 319 321 316 316 314 310 307 306 300 294 294 292 285 279 275 267 262 252 247 244 242 238
18 13 11 12 9 354 354 345 335 328 320 317 323 324 321 321 320 320 320 320 313 311 309 309 306 298 295 291 288 287 277 271 264 255 248 245 240 237
37 30 24 17 4 359 357 345 337 330 326 322 322 325 325 326 324 323 320 322 321 317 312 311 312 303 299 294 296 294 286 273 263 259 249 245 240 239
37 29 27 15 3 1 353 344 338 336 332 328 327 328 329 329 328 325 324 325 324 323 323 317 313 312 309 308 298 289 284 274 267 260 252 246 242 237
38 30 27 15 3 357 359 347 347 339 336 332 330 330 330 330 330 327 322 322 324 324 323 313 316 318 314 312 304 297 294 284 271 263 256 250 244 239
34 29 22 9 1 1 5 357 351 344 338 333 329 327 326 326 324 323 321 322 320 323 315 317 320 318 314 310 308 306 300 292 279 266 257 252 246 240
28 25 16 1 2 354 356 356 352 348 342 335 327 326 322 323 321 321 318 314 310 314 316 313 320 313 314 310 316 313 300 287 271 267 267 256 251 244
20 19 12 1 354 354 352 351 349 345 339 333 328 325 322 322 320 316 314 310 308 310 314 305 318 315 312 316 319 311 303 298 288 263 271 271 255 247
18 14 8 3 356 351 348 345 341 338 338 334 326 322 321 322 324 323 320 317 314 314 325 307 313 315 320 323 327 308 312 309 291 276 276 273 262 247
19 11 7 1 356 349 345 341 335 336 338 335 332 330 326 325 328 328 322 317 313 316 307 315 318 324 319 313 307 316 320 318 316 303 285 267 264 260
11 9 4 359 354 348 342 337 334 335 334 336 337 336 337 335 333 330 326 317 309 300 312 307 307 311 297 302 306 311 318 318 312 311 302 281 260 255
6 5 1 356 349 344 341 337 336 334 338 342 342 341 339 338 335 332 328 327 319 305 310 311 303 304 302 300 301 310 310 314 313 311 306 290 259 246
2 1 357 352 346 343 342 339 338 343 345 345 344 342 341 339 338 334 332 331 326 329 327 314 306 307 303 299 297 302 309 314 310 312 305 297 287 259
357 356 352 347 347 346 344 343 347 348 347 345 343 341 341 341 340 338 333 333 331 331 334 333 325 315 307 304 303 302 308 297 302 302 299 294 285 269
353 351 348 350 349 345 345 347 348 346 344 343 343 341 342 340 341 340 337 332 328 327 333 338 337 326 315 305 302 305 303 301 302 297 293 290 284 273
348 347 349 350 346 344 347 347 346 344 342 341 343 342 341 339 338 340 337 333 328 329 329 338 339 336 330 324 312 303 298 299 299 296 289 281 280 273
343 347 349 345 344 346 345 344 343 344 342 342 341 340 339 338 338 337 335 333 333 333 333 333 328 326 318 311 323 318 301 304 302 296 289 281 274 271
342 345 342 343 345 344 342 340 340 341 341 340 339 340 340 337 336 335 335 336 334 337 335 336 329 324 314 305 305 319 326 301 296 292 286 285 275 266
340 340 340 341 341 341 339 339 338 340 339 339 338 338 339 337 336 337 334 337 338 329 329 334 336 337 327 318 305 306 318 311 295 287 285 275 266 260
334 337 337 338 338 339 338 336 336 337 338 337 336 336 338 337 335 334 334 334 337 332 331 336 338 336 333 317 310 311 319 328 322 312 292 250 233 231
332 334 335 337 337 336 335 334 334 335 335 335 335 335 336 336 336 334 333 334 335 335 336 333 337 338 329 322 316 314 316 320 325 327 313 242 227 212